TimeADT,TemperatureF,Dew PointF,Humidity,Sea Level PressureIn,VisibilityMPH,Wind Direction,Wind SpeedMPH,Gust SpeedMPH,PrecipitationIn,Events,Conditions,WindDirDegrees,DateUTC
12:00 AM,-16.6,-22.0,76,29.86,9.0,SSW,3.5,-,N/A,,Clear,210,2013-04-20 03:00:00
1:00 AM,-23.8,-27.4,83,29.86,9.0,Variable,2.3,-,N/A,,Clear,0,2013-04-20 04:00:00
2:00 AM,-18.4,-23.8,76,29.85,9.0,SSW,6.9,-,N/A,,Clear,210,2013-04-20 05:00:00
3:00 AM,-11,-17,62,29.86,10,SSW,8.1,,,,,200,2013-04-20 06:00:00
3:00 AM,-11.2,-16.6,77,29.86,9.0,SSW,8.1,-,N/A,,Clear,210,2013-04-20 06:00:00
4:00 AM,-13.0,-18.4,77,29.85,9.0,SSW,6.9,-,N/A,,Clear,200,2013-04-20 07:00:00
5:00 AM,-14.8,-20.2,77,29.84,9.0,SSW,6.9,-,N/A,,Clear,200,2013-04-20 08:00:00
6:00 AM,-16.6,-22.0,76,29.84,9.0,South,4.6,-,N/A,,Clear,190,2013-04-20 09:00:00
7:00 AM,-20.2,-25.6,76,29.86,9.0,East,4.6,-,N/A,,Clear,80,2013-04-20 10:00:00
8:00 AM,-14.8,-20.2,77,29.86,9.0,ENE,4.6,-,N/A,,Clear,60,2013-04-20 11:00:00
9:00 AM,-13,-18,69,29.87,10,South,1.2,,,,,180,2013-04-20 12:00:00
9:00 AM,-13.0,-18.4,77,29.86,15.0,Calm,Calm,-,N/A,,Clear,0,2013-04-20 12:00:00
10:00 AM,-11.2,-16.6,77,29.85,15.0,Calm,Calm,-,N/A,,Clear,0,2013-04-20 13:00:00
11:00 AM,-9.4,-14.8,77,29.82,15.0,Calm,Calm,-,N/A,,Clear,0,2013-04-20 14:00:00
12:00 PM,-7.6,-14.8,71,29.81,15.0,NNW,3.5,-,N/A,,Clear,340,2013-04-20 15:00:00
1:00 PM,-5.8,-13.0,71,29.81,15.0,ENE,2.3,-,N/A,,Clear,60,2013-04-20 16:00:00
2:00 PM,-4.0,-11.2,71,29.80,15.0,ENE,3.5,-,N/A,,Clear,70,2013-04-20 17:00:00
3:00 PM,-4,-10,61,29.78,10,North,3.5,,,,,350,2013-04-20 18:00:00
3:00 PM,-4.0,-11.2,71,29.78,15.0,North,3.5,-,N/A,,Clear,350,2013-04-20 18:00:00
4:00 PM,-4.0,-11.2,71,29.76,15.0,North,3.5,-,N/A,,Clear,10,2013-04-20 19:00:00
5:00 PM,-4.0,-11.2,71,29.75,15.0,Calm,Calm,-,N/A,,Clear,0,2013-04-20 20:00:00
6:00 PM,-4.0,-9.4,78,29.75,15.0,Calm,Calm,-,N/A,,Clear,0,2013-04-20 21:00:00
7:00 PM,-7.6,-13.0,77,29.75,9.0,NNW,4.6,-,N/A,,Scattered Clouds,330,2013-04-20 22:00:00
7:01 PM,-7.6,-13.0,77,29.75,9.0,NW,4.6,-,N/A,,Mostly Cloudy,320,2013-04-20 22:01:00
8:00 PM,-7.6,-13.0,77,29.75,9.0,Calm,Calm,-,N/A,,Mostly Cloudy,0,2013-04-20 23:00:00
8:37 PM,-5.8,-11.2,77,29.75,5.0,Variable,2.3,-,N/A,,Haze,0,2013-04-20 23:37:00
8:44 PM,-5.8,-11.2,77,29.74,6.0,NE,3.5,-,N/A,,Haze,40,2013-04-20 23:44:00
8:49 PM,-5.8,-11.2,77,29.74,5.0,ENE,3.5,-,N/A,,Haze,60,2013-04-20 23:49:00
8:58 PM,-5.8,-11.2,77,29.74,6.0,NNE,3.5,-,N/A,,Haze,20,2013-04-20 23:58:00
9:00 PM,-6,-11,68,29.74,7,NNE,3.5,,,,Overcast,30,2013-04-21 00:00:00
9:00 PM,-5.8,-11.2,77,29.74,7.0,NNE,3.5,-,N/A,,Overcast,30,2013-04-21 00:00:00
9:13 PM,-5.8,-11.2,77,29.74,6.0,NNE,2.3,-,N/A,Snow,Light Snow,30,2013-04-21 00:13:00
9:23 PM,-7.6,-13.0,77,29.74,9.0,Variable,2.3,-,N/A,,Overcast,0,2013-04-21 00:23:00
9:25 PM,-7.6,-11.2,84,29.74,9.0,Calm,Calm,-,N/A,,Overcast,0,2013-04-21 00:25:00
9:37 PM,-7.6,-13.0,77,29.74,9.0,NNE,3.5,-,N/A,Snow,Light Snow,30,2013-04-21 00:37:00
9:46 PM,-7.6,-13.0,77,29.74,9.0,NE,3.5,-,N/A,,Overcast,50,2013-04-21 00:46:00
9:57 PM,-7.6,-11.2,84,29.73,9.0,NE,3.5,-,N/A,,Overcast,50,2013-04-21 00:57:00
10:00 PM,-7.6,-11.2,84,29.73,9.0,ENE,3.5,-,N/A,,Overcast,60,2013-04-21 01:00:00
10:12 PM,-7.6,-11.2,84,29.73,9.0,NE,2.3,-,N/A,Snow,Light Snow,50,2013-04-21 01:12:00
10:21 PM,-7.6,-11.2,84,29.73,8.0,NE,2.3,-,N/A,,Overcast,50,2013-04-21 01:21:00
10:25 PM,-7.6,-13.0,77,29.73,8.0,Calm,Calm,-,N/A,Snow,Light Snow,0,2013-04-21 01:25:00
10:35 PM,-7.6,-11.2,84,29.73,9.0,Calm,Calm,-,N/A,,Overcast,0,2013-04-21 01:35:00
10:49 PM,-7.6,-11.2,84,29.73,7.0,Variable,2.3,-,N/A,Snow,Light Snow,0,2013-04-21 01:49:00
11:00 PM,-7.6,-11.2,84,29.73,9.0,East,3.5,-,N/A,Snow,Light Snow,90,2013-04-21 02:00:00
11:05 PM,-7.6,-13.0,77,29.73,9.0,East,3.5,-,N/A,Snow,Light Snow,90,2013-04-21 02:05:00
11:15 PM,-7.6,-13.0,77,29.73,9.0,ENE,4.6,-,N/A,,Overcast,60,2013-04-21 02:15:00
11:19 PM,-7.6,-13.0,77,29.73,9.0,ENE,4.6,-,N/A,Snow,Light Snow,60,2013-04-21 02:19:00
11:36 PM,-9.4,-13.0,84,29.72,5.0,ENE,5.8,-,N/A,Snow,Light Snow,70,2013-04-21 02:36:00
11:45 PM,-9.4,-13.0,84,29.72,6.0,East,2.3,-,N/A,Snow,Light Snow,100,2013-04-21 02:45:00